Temperature
14 14 14 15 15 15 15 15 15 15 15 15 15 15 15 15 14 14 14 14 14 14 14 13 13 13 13 13 13 13 12 12 12 12 12 12 12 11 11 11 11 11 11
14 14 14 14 15 15 15 15 15 15 15 15 15 15 15 14 14 14 14 14 14 13 13 13 13 13 13 13 13 13 12 12 12 12 12 12 11 11 11 11 11 11 11
14 14 14 14 14 15 15 15 15 15 15 15 15 15 14 14 14 14 14 14 14 13 13 13 13 13 13 13 13 13 12 12 12 12 11 11 11 11 11 11 10 10 10
14 14 14 14 14 14 14 14 14 14 14 14 14 14 14 14 14 14 14 14 13 13 13 13 13 13 13 13 13 12 12 12 12 11 11 11 11 11 10 10 10 10 10
13 13 13 13 14 14 14 14 14 14 14 14 14 14 14 14 14 14 14 13 13 13 13 13 13 13 13 13 12 12 12 12 12 11 11 11 11 10 10 10 10 10 9
13 13 13 13 13 13 13 14 14 14 14 14 13 13 13 13 13 13 13 13 13 13 13 13 13 13 13 12 12 12 12 12 11 11 11 11 10 10 10 10 9 9 9
13 13 13 13 13 13 13 13 13 13 13 13 13 13 13 13 13 13 13 13 13 13 13 13 12 12 12 12 12 12 12 11 11 11 11 10 10 10 9 9 9 9 9
12 12 12 12 12 12 12 13 13 13 13 13 12 12 12 12 12 13 13 13 13 13 13 13 12 12 12 12 12 12 11 11 11 11 10 10 10 9 9 9 9 8 8
12 12 12 12 12 12 12 12 13 13 12 12 12 12 12 12 12 13 13 13 13 13 13 12 12 12 12 12 12 11 11 11 11 10 10 10 9 9 9 8 8 8 8
12 12 12 12 12 12 12 12 12 12 12 12 12 12 13 13 13 12 12 12 12 12 12 12 12 12 12 12 11 11 11 11 10 10 9 9 9 8 8 8 8 8 7
11 11 11 11 11 12 12 12 12 12 12 12 12 12 12 12 12 13 12 12 12 12 12 12 12 12 11 11 11 11 11 10 10 9 9 9 8 8 8 8 7 7 7
11 11 11 11 11 11 11 11 11 12 12 12 12 12 12 12 12 12 13 12 12 12 12 11 11 11 11 11 11 10 10 10 9 9 9 8 8 8 7 7 7 7 7
10 10 11 11 11 11 11 11 11 11 11 11 11 12 12 12 12 12 12 12 12 11 11 11 11 11 11 11 10 10 10 9 9 9 8 8 8 7 7 7 7 6 6
10 10 10 10 10 10 10 11 11 11 11 11 11 11 11 11 11 11 11 12 11 11 11 11 11 11 11 10 10 9 9 9 9 8 8 8 7 7 7 6 6 6 6
9 10 10 10 10 10 10 10 10 10 10 11 11 11 11 11 11 11 11 11 11 11 10 11 11 11 11 10 10 9 9 8 8 8 7 7 7 6 6 6 6 6 6
9 9 9 9 9 10 9 10 10 10 10 10 10 10 10 10 10 10 10 10 10 10 10 11 11 11 10 10 9 9 8 8 7 7 7 7 6 6 6 5 5 5 5
8 9 9 9 9 9 9 9 9 9 9 9 9 10 10 10 10 10 10 10 10 10 10 10 10 10 9 9 9 8 7 7 7 7 6 6 6 6 5 5 5 5 5
8 8 8 8 8 8 8 9 9 9 9 9 9 9 9 9 9 9 9 9 9 9 9 9 9 9 9 8 8 7 7 6 6 6 6 5 5 5 5 4 4 4 4
7 7 7 7 7 8 8 8 8 8 8 8 8 9 9 9 9 9 9 9 9 8 8 8 8 8 8 7 7 6 6 6 6 5 5 5 5 4 4 4 4 4 4
6 6 6 6 6 6 7 7 7 7 7 8 8 8 8 8 8 8 8 8 8 8 8 7 7 7 7 7 6 6 5 5 5 5 4 4 4 4 3 3 3 3 4
5 5 5 5 5 6 6 6 6 6 7 7 7 7 7 7 7 7 7 7 7 7 7 7 7 7 6 6 6 6 5 5 4 4 4 4 4 3 3 3 3 3 3
4 4 4 4 4 5 5 5 5 5 5 6 6 6 6 7 7 7 7 7 6 6 6 6 6 6 6 6 6 5 5 4 3 4 3 3 3 3 3 3 3 3 3
3 3 3 3 3 4 4 4 4 4 4 5 5 5 5 6 6 6 6 6 6 6 6 6 6 6 6 6 6 5 4 4 4 4 3 3 3 3 2 2 2 2 2
2 2 2 2 2 2 3 3 3 3 4 4 4 4 4 5 5 5 5 5 5 5 5 5 5 5 5 5 5 5 4 4 3 3 2 2 2 2 2 2 2 2 2
1 1 1 1 1 2 2 2 2 2 3 3 3 3 3 3 4 4 4 4 4 4 4 4 4 4 4 4 4 4 3 3 2 2 2 2 2 2 2 2 2 2 2
-1 -0 -0 0 0 1 1 1 1 1 1 1 2 2 2 2 3 3 3 3 3 4 4 4 4 4 4 4 3 3 3 3 3 2 2 1 2 1 1 1 1 1 1
Wind_Speed
8 7 7 9 10 11 10 8 8 7 6 7 7 7 7 7 8 8 8 9 9 8 7 6 5 5 5 4 3 3 2 3 3 2 2 2 1 1 2 3 3 5 6
8 8 8 8 9 11 10 9 8 6 5 5 5 6 7 7 7 8 8 8 9 9 8 6 5 4 4 4 3 3 3 2 2 2 2 2 2 2 2 2 3 4 5
11 9 8 9 9 11 10 8 6 5 4 4 4 5 5 6 7 8 8 8 8 9 9 7 6 5 4 4 4 4 3 3 2 2 2 2 2 1 1 2 3 4 5
13 9 8 9 10 11 9 7 6 5 5 5 4 4 4 5 6 7 8 8 8 8 8 7 6 5 4 5 5 4 4 3 3 2 2 3 2 1 1 2 3 4 5
14 10 8 7 10 8 8 8 6 5 5 5 4 3 3 4 4 6 6 8 8 8 8 7 6 5 5 5 5 5 4 3 3 2 2 2 1 1 1 2 3 3 5
13 10 8 9 10 8 8 8 7 6 5 5 3 2 2 3 3 4 5 6 8 9 9 8 7 5 5 5 5 5 4 4 3 3 3 2 1 1 1 2 2 3 5
12 11 9 9 10 10 10 10 7 7 5 4 3 1 1 1 3 4 4 4 5 8 8 8 8 7 6 6 6 5 4 4 4 4 3 2 1 1 1 2 2 3 4
11 11 11 10 11 10 11 11 8 6 5 6 5 3 2 2 3 4 4 5 5 5 6 8 8 8 8 7 7 6 5 4 4 4 3 2 1 1 0 1 2 3 4
10 9 10 10 10 10 11 12 12 11 8 7 6 5 5 6 3 2 3 4 5 5 5 6 8 9 9 8 7 7 6 5 4 4 3 3 2 1 1 2 3 3 4
8 9 9 10 10 10 10 11 12 9 9 8 6 5 3 4 4 3 2 2 4 5 6 5 7 9 10 9 9 8 7 6 5 4 4 3 2 1 1 2 2 3 4
6 7 8 9 10 9 10 11 11 11 10 9 7 5 3 2 3 4 4 3 3 4 5 5 5 7 9 10 9 9 8 7 6 5 4 3 2 1 2 2 3 3 4
4 5 6 7 8 9 10 11 12 12 11 10 9 7 6 5 5 4 4 4 4 3 3 4 5 6 9 10 10 11 10 8 6 5 4 3 2 1 2 2 2 3 4
3 4 5 5 6 7 8 9 10 11 12 12 11 9 8 7 5 4 4 3 3 2 3 4 5 7 9 11 11 12 11 9 7 6 5 4 4 3 2 1 2 3 4
3 3 4 5 6 6 7 8 8 9 9 11 11 10 7 7 6 5 5 5 4 3 4 5 4 7 9 11 12 13 11 11 9 8 6 6 5 3 2 1 2 3 4
2 3 3 4 5 5 7 7 7 8 9 10 10 10 8 7 6 6 5 5 6 6 9 7 6 6 9 11 13 12 11 12 11 9 8 7 5 4 2 1 1 3 3
2 3 3 3 4 5 5 6 6 6 8 8 8 10 9 7 7 7 6 6 6 6 7 6 6 4 8 9 13 13 12 13 12 11 10 8 7 5 3 2 0 1 2
3 3 3 3 3 4 5 5 6 6 8 8 7 9 10 8 8 7 7 7 7 5 6 3 2 3 7 9 9 11 11 11 11 11 10 9 7 6 5 3 1 1 2
4 4 3 2 3 3 4 5 6 6 8 8 8 8 8 7 9 8 8 8 7 7 6 5 4 5 6 9 9 8 8 9 9 11 11 10 8 7 6 4 3 1 1
6 6 5 3 3 3 4 4 5 6 7 7 7 8 8 8 9 8 9 8 7 6 5 5 5 4 3 5 6 5 5 5 7 10 11 11 10 8 8 6 4 2 1
7 7 6 5 4 4 4 4 4 5 5 6 7 7 8 9 10 9 9 10 8 8 6 6 5 4 4 4 6 6 5 4 4 5 8 9 9 9 8 7 5 4 2
8 7 7 7 6 5 5 5 5 5 5 6 6 6 7 9 10 9 8 9 9 8 8 7 6 5 6 7 9 6 6 4 3 3 3 4 5 4 5 6 5 5 4
7 7 6 6 6 6 10 11 8 5 5 6 6 6 6 8 9 11 12 13 13 11 11 9 7 8 9 7 7 7 6 5 4 4 5 4 3 4 5 6 6 6 5
8 8 7 7 7 8 12 11 10 6 5 5 5 5 5 5 6 6 9 11 13 15 14 11 10 10 10 10 11 9 8 6 5 6 5 4 3 4 4 7 7 7 6
7 7 7 7 7 9 12 12 12 6 5 6 5 5 5 5 6 6 6 6 7 8 10 8 9 9 9 10 12 10 8 6 4 3 4 4 4 3 2 4 6 7 7
7 7 7 8 8 9 12 13 11 5 5 6 6 5 6 6 8 7 6 6 6 5 6 8 8 9 11 14 13 9 9 7 4 4 4 4 3 2 2 2 4 6 7
7 8 8 7 7 8 12 13 12 5 6 6 5 5 7 8 9 8 6 6 8 6 6 6 6 8 9 12 17 12 11 8 4 4 5 5 4 4 2 1 1 2 4
Wind_Direction
178 175 175 175 175 175 176 175 174 173 173 177 180 179 184 193 202 208 216 215 212 210 209 210 211 214 210 209 208 201 181 169 156 147 147 144 117 67 35 18 5 358 354
180 179 180 179 180 180 181 182 180 177 179 179 188 191 194 198 205 210 215 214 211 210 212 213 212 213 213 207 203 191 167 147 162 161 155 147 120 74 35 17 358 349 345
187 184 185 185 185 181 177 176 176 171 180 189 200 198 198 202 204 207 207 208 209 211 212 212 214 215 218 207 198 183 173 170 164 171 167 161 145 109 22 4 353 340 334
191 186 190 190 183 179 179 179 181 182 191 194 200 205 199 200 205 206 203 203 202 202 205 206 206 208 209 204 196 180 177 172 162 157 147 145 143 134 345 346 345 342 340
194 190 191 189 181 181 185 188 186 182 189 194 199 202 204 205 202 199 198 201 200 197 195 196 197 198 198 200 192 178 175 162 156 169 170 163 182 263 316 329 338 345 346
196 193 191 188 183 185 189 190 186 182 181 175 176 188 215 218 201 200 199 195 196 196 193 187 186 186 188 186 182 177 179 171 164 163 163 163 220 265 287 321 331 333 337
198 195 196 189 187 192 194 190 184 183 183 153 139 175 297 236 212 209 197 189 189 191 188 186 185 181 179 181 174 171 179 178 176 169 166 172 233 249 276 321 344 349 352
200 200 196 194 193 194 192 189 182 182 183 174 161 151 209 260 239 213 198 199 194 178 181 189 185 181 176 170 168 169 173 179 181 183 188 197 210 228 324 26 9 4 358
200 200 199 197 194 196 199 196 192 189 189 193 186 172 177 210 215 220 208 201 189 183 183 178 184 184 181 173 166 168 170 173 181 192 194 193 187 163 62 355 355 9 9
202 198 201 202 201 202 202 200 199 198 188 195 204 213 201 165 175 200 222 203 193 192 191 186 181 185 184 178 175 175 173 175 185 196 192 176 156 115 30 4 20 16 6
213 204 200 203 206 207 207 202 201 201 200 200 195 189 193 195 192 183 201 200 204 210 200 189 180 182 185 182 179 180 175 179 187 194 190 173 139 49 16 35 38 20 3
222 217 209 205 209 211 209 206 204 203 205 207 205 199 191 188 193 188 198 197 204 204 196 189 186 187 187 185 184 179 175 177 181 188 187 165 135 81 54 39 22 3 353
226 223 218 213 215 217 214 209 209 210 210 210 212 213 210 205 184 180 182 187 190 190 188 205 199 191 190 184 182 179 175 171 172 176 167 141 119 102 78 13 358 355 352
246 230 223 223 220 217 216 212 212 214 213 214 214 211 213 209 197 189 183 175 179 199 210 212 192 196 191 185 184 178 175 170 167 166 160 145 133 125 107 46 13 1 352
276 248 228 228 224 218 217 212 217 216 216 216 214 212 214 212 204 203 193 186 184 204 218 207 196 193 188 184 184 180 176 173 168 166 161 157 153 145 138 105 18 1 352
303 276 251 237 226 219 223 221 220 218 219 220 215 211 215 214 209 207 201 201 203 207 218 199 196 180 180 181 185 180 179 176 173 171 170 167 164 162 170 172 172 350 354
327 303 280 259 246 237 232 231 232 222 223 224 219 214 216 208 210 210 204 203 206 203 218 198 166 165 176 180 175 177 179 176 176 177 177 176 175 179 187 191 208 290 329
345 330 310 289 266 258 246 237 237 230 227 225 222 218 218 212 213 210 207 209 210 203 198 197 184 178 190 187 175 174 176 181 178 182 184 184 186 189 190 191 198 211 318
357 355 340 317 303 283 267 257 246 241 237 232 225 221 219 214 221 216 207 209 209 203 192 187 187 177 174 174 171 170 173 175 180 187 189 192 193 195 195 195 200 204 217
359 357 350 343 329 316 304 291 275 255 250 244 233 228 221 216 220 218 213 209 202 198 190 183 179 172 170 168 171 175 183 186 181 180 190 193 195 196 199 201 202 200 199
356 352 351 351 346 336 325 314 294 275 256 251 246 238 231 226 223 220 217 207 199 200 194 195 190 180 182 178 189 178 186 169 181 182 172 181 177 180 195 202 199 192 189
351 351 350 344 341 335 333 330 317 293 275 258 254 250 243 233 229 228 225 215 203 200 200 202 201 198 195 188 177 174 167 167 199 188 173 187 172 190 199 199 200 196 192
345 343 339 336 328 324 331 327 321 310 290 274 261 255 254 245 238 231 233 226 218 213 204 198 202 202 190 185 175 176 180 178 182 167 163 184 179 199 199 201 201 199 193
333 330 327 323 318 319 327 327 325 315 297 284 272 261 255 249 238 228 222 218 216 214 207 201 203 200 188 179 180 179 172 142 99 131 158 176 180 194 182 198 205 200 195
327 324 321 321 317 315 320 323 322 305 296 289 282 273 265 253 249 240 224 215 214 215 207 198 191 185 180 178 168 150 152 159 168 180 177 163 163 159 161 193 207 200 194
319 320 318 316 311 309 315 321 322 305 299 294 286 274 268 263 256 245 233 219 215 211 185 177 174 172 171 177 177 174 170 168 156 179 182 163 155 150 166 190 176 179 177
Height
1509 1512 1515 1518 1521 1524 1527 1530 1533 1535 1538 1540 1542 1543 1545 1546 1548 1549 1549 1550 1551 1551 1551 1552 1552 1551 1551 1551 1551 1551 1551 1551 1551 1550 1550 1550 1549 1549 1548 1548 1547 1546 1545
1505 1508 1511 1515 1518 1521 1524 1527 1530 1533 1535 1538 1540 1541 1543 1544 1546 1547 1548 1548 1549 1549 1550 1550 1550 1550 1550 1550 1550 1550 1549 1549 1549 1549 1549 1548 1548 1548 1547 1546 1545 1544 1543
1501 1505 1507 1511 1514 1517 1521 1524 1527 1530 1532 1535 1537 1539 1541 1542 1543 1544 1545 1546 1547 1547 1548 1548 1548 1548 1548 1548 1548 1548 1548 1547 1547 1547 1547 1547 1546 1546 1545 1544 1543 1542 1541
1497 1500 1503 1506 1510 1513 1517 1520 1523 1526 1529 1531 1534 1536 1538 1539 1541 1542 1543 1544 1545 1545 1546 1546 1546 1546 1546 1546 1546 1546 1546 1546 1545 1545 1545 1545 1544 1544 1543 1542 1541 1540 1539
1492 1495 1499 1502 1506 1509 1512 1516 1519 1522 1525 1528 1531 1533 1535 1536 1538 1539 1540 1541 1542 1542 1543 1543 1544 1544 1544 1544 1544 1544 1544 1544 1543 1543 1543 1542 1542 1541 1540 1540 1539 1538 1537
1487 1491 1494 1497 1501 1504 1507 1511 1514 1517 1521 1524 1527 1529 1531 1533 1534 1535 1536 1537 1538 1539 1540 1540 1541 1541 1541 1542 1541 1541 1541 1541 1541 1541 1540 1540 1539 1539 1538 1537 1536 1535 1534
1482 1486 1489 1492 1495 1498 1502 1505 1509 1513 1516 1520 1523 1525 1527 1528 1530 1531 1532 1533 1534 1535 1536 1537 1538 1538 1538 1539 1539 1539 1539 1539 1538 1538 1537 1537 1537 1536 1535 1534 1534 1533 1532
1477 1480 1483 1486 1489 1493 1496 1499 1503 1507 1510 1514 1517 1520 1522 1524 1524 1525 1527 1528 1529 1531 1532 1533 1534 1534 1535 1535 1535 1535 1536 1535 1535 1535 1535 1534 1534 1533 1532 1532 1531 1529 1528
1472 1475 1478 1481 1484 1487 1491 1494 1498 1501 1504 1508 1512 1515 1516 1516 1518 1519 1520 1522 1524 1525 1527 1528 1529 1530 1531 1532 1532 1532 1532 1532 1532 1532 1532 1531 1530 1530 1529 1529 1528 1526 1525
1466 1469 1472 1475 1478 1481 1485 1488 1491 1494 1498 1501 1505 1508 1510 1511 1512 1513 1514 1516 1518 1519 1521 1523 1524 1525 1527 1527 1528 1528 1528 1528 1528 1528 1528 1528 1527 1526 1526 1525 1524 1523 1522
1461 1464 1467 1469 1472 1475 1478 1481 1484 1488 1491 1494 1497 1500 1503 1505 1506 1507 1507 1509 1511 1513 1515 1517 1519 1520 1521 1523 1523 1524 1524 1524 1524 1524 1524 1524 1523 1523 1522 1521 1520 1520 1519
1456 1458 1461 1463 1466 1469 1471 1474 1478 1481 1484 1487 1490 1492 1495 1497 1499 1500 1501 1502 1505 1507 1509 1510 1512 1514 1516 1517 1518 1519 1519 1520 1520 1520 1520 1519 1519 1519 1518 1517 1516 1515 1514
1451 1453 1455 1457 1460 1462 1465 1468 1470 1472 1476 1479 1482 1484 1487 1489 1492 1494 1496 1497 1498 1500 1502 1504 1506 1508 1510 1511 1513 1514 1514 1514 1515 1515 1515 1515 1515 1514 1514 1513 1512 1511 1510
1446 1448 1450 1452 1454 1456 1458 1460 1462 1465 1468 1470 1473 1476 1479 1482 1484 1487 1490 1491 1492 1494 1495 1496 1499 1501 1503 1505 1506 1508 1509 1509 1510 1510 1510 1510 1510 1510 1509 1509 1508 1506 1505
1443 1444 1445 1447 1448 1450 1452 1454 1455 1457 1460 1463 1465 1468 1471 1474 1477 1480 1482 1484 1487 1487 1488 1489 1491 1494 1496 1498 1500 1501 1503 1503 1504 1505 1505 1505 1505 1505 1504 1504 1503 1502 1502
1439 1440 1440 1441 1443 1444 1446 1448 1449 1451 1453 1455 1457 1460 1463 1466 1469 1472 1474 1476 1479 1481 1481 1482 1485 1487 1489 1491 1493 1495 1496 1498 1498 1499 1500 1500 1500 1500 1500 1499 1499 1498 1498
1435 1435 1436 1436 1437 1438 1440 1442 1443 1444 1446 1449 1450 1452 1454 1458 1460 1463 1465 1468 1471 1473 1474 1475 1477 1480 1482 1484 1485 1487 1489 1491 1492 1493 1494 1495 1495 1495 1495 1495 1494 1494 1494
1432 1431 1431 1431 1432 1433 1434 1435 1436 1438 1440 1441 1443 1445 1447 1449 1452 1455 1457 1459 1462 1464 1466 1467 1469 1472 1474 1476 1478 1480 1482 1484 1485 1487 1488 1489 1489 1490 1490 1490 1490 1490 1490
1428 1428 1427 1427 1427 1427 1428 1429 1430 1432 1433 1435 1436 1438 1440 1442 1444 1446 1448 1450 1453 1455 1457 1459 1461 1464 1466 1468 1470 1473 1475 1477 1479 1480 1482 1483 1484 1484 1485 1485 1486 1486 1486
1426 1425 1424 1423 1423 1423 1423 1423 1424 1425 1426 1428 1429 1431 1432 1434 1436 1437 1439 1441 1444 1446 1448 1450 1452 1454 1457 1460 1463 1465 1467 1470 1472 1474 1476 1477 1478 1479 1480 1481 1481 1482 1482
1424 1423 1421 1420 1419 1419 1418 1418 1418 1419 1419 1420 1421 1423 1424 1426 1428 1430 1431 1433 1435 1437 1439 1441 1443 1446 1448 1451 1454 1457 1460 1463 1465 1467 1469 1471 1472 1473 1475 1476 1477 1477 1478
1423 1421 1419 1418 1416 1415 1415 1414 1414 1413 1413 1413 1414 1415 1417 1418 1420 1421 1423 1425 1426 1428 1430 1432 1434 1436 1438 1442 1446 1449 1452 1455 1458 1461 1463 1465 1466 1468 1470 1471 1472 1473 1474
1421 1419 1417 1415 1413 1412 1411 1410 1409 1408 1407 1407 1407 1408 1408 1410 1412 1413 1415 1416 1418 1419 1422 1424 1425 1428 1431 1435 1439 1442 1445 1447 1450 1454 1456 1458 1461 1462 1464 1466 1468 1469 1470
1417 1415 1413 1411 1409 1408 1407 1405 1404 1403 1402 1401 1401 1401 1402 1403 1404 1405 1406 1408 1409 1411 1414 1416 1419 1422 1425 1429 1432 1435 1438 1442 1445 1448 1450 1452 1454 1457 1459 1461 1463 1464 1466
1414 1412 1410 1407 1405 1403 1402 1400 1399 1397 1396 1395 1395 1395 1395 1396 1397 1398 1399 1400 1402 1404 1406 1409 1412 1414 1418 1422 1425 1428 1431 1434 1436 1440 1444 1446 1448 1451 1453 1455 1458 1460 1462
1410 1407 1405 1403 1400 1398 1397 1395 1394 1392 1391 1390 1389 1389 1389 1390 1391 1391 1392 1393 1395 1397 1400 1402 1405 1408 1411 1415 1418 1421 1424 1427 1430 1433 1436 1440 1442 1446 1448 1450 1452 1455 1457